Regional Weather Roundup
Issued by NWS

Home | Current Version | Previous Version | Graphics & Text | Print | Product List | Glossary Off
Versions: 1 2 3 4 5 6 7 8 9 10 11 12 13 14 15 16 17 18 19 20 21 22 23 24 25 26 27 28 29 30 31 32 33 34 35 36 37 38 39 40 41 42 43 44 45 46 47 48 49 50

000
ASUS43 KDTX 260510
RWRMI
MICHIGAN HOURLY REGIONAL WEATHER ROUNDUP
NATIONAL WEATHER SERVICE DETROIT/PONTIAC MI
1200 AM EST MON JAN 26 2015

NOTE: "FAIR" INDICATES FEW OR NO CLOUDS BELOW 12,000 FEET WITH NO
SIGNIFICANT WEATHER AND/OR OBSTRUCTION TO VISIBILITY.

MIZ047>049-052>055-059>063-066>070-074>076-081>083-260600-
SOUTHEAST LOWER MICHIGAN

CITY           SKY/WX    TMP DP  RH WIND       PRES   REMARKS
ADRIAN         CLOUDY    19   9  65 NE13      29.96R
ALMA           FLURRIES  14  10  82 N7        30.04F
ANN ARBOR      CLOUDY    19   9  65 NE12G20   29.97R
BAD AXE        LGT SNOW  17  14  88 E6        30.04S
DETROIT CITY   CLOUDY    18   3  52 NE10      30.00R
DETROIT        CLOUDY    18   4  54 NE9       29.99R
FLINT          MOCLDY    17  10  74 NE8       30.01R
GROSSE ILE     CLOUDY    18   5  57 NE14G22   29.96S
HILLSDALE      MOCLDY    18   8  64 NE9       29.93R
HOWELL         MOCLDY    15  10  83 NE6       29.98S

CITY           SKY/WX    TMP DP  RH WIND       PRES   REMARKS
JACKSON        MOCLDY    16   9  74 NE9       29.96S
LAMBERTVILLE   CLOUDY    21   7  53 NE9       29.95S
LANSING        PTCLDY    15   8  73 NE8       30.01R
LAPEER         NOT AVBL
MASON          PTCLDY    15  10  79 NE8       29.99R
MONROE         CLOUDY    18   7  62 NE12      29.95S
MT. CLEMENS    MOCLDY    16   4  59 NE12      29.98S
PONTIAC        MOCLDY    15   7  70 NE8       29.96S
PORT HOPE        N/A     20  13  74 NE15      30.03S
PORT HURON     MOCLDY    14   7  73 NE9       30.01S
TRI CITIES     FLURRIES  15   9  76 N9        30.05S
YPSILANTI      CLOUDY    21  10  62 NE12      29.98R
$$
MIZ043>046-050>051-056>058-064>065-071>073-077>080-260600-
SOUTHWEST LOWER MICHIGAN

CITY           SKY/WX    TMP DP  RH WIND       PRES   REMARKS
BATTLE CREEK   CLOUDY    18   8  65 NE13      29.97R
BENTON HARBOR  CLEAR     17  10  74 NE6       29.99R
BIG RAPIDS       N/A     10   4  76 N5        30.02S
COLDWATER      MOCLDY    17   7  65 NE12      29.95S
HOLLAND        CLEAR     17   9  70 NE7       30.02R
GRAND RAPIDS   MOCLDY    17  10  74 NE9       30.01S
KALAMAZOO      CLOUDY    18   8  65 NE10      29.97F
MARSHALL       MOCLDY    16   9  75 NE6       29.96S
MUSKEGON       CLEAR     16   7  67 NE5       30.04S
$$
MIZ016>042-260600-
NORTHERN LOWER MICHIGAN

CITY           SKY/WX    TMP DP  RH WIND       PRES   REMARKS
ALPENA         PTCLDY    -2  -7  79 CALM      30.08F
BEAVER ISLAND  PTCLDY    -4  -7  85 CALM      30.05F
BELLAIRE       PTCLDY    -1  -4  85 NW3       30.07F
CADILLAC       PTCLDY     4  -1  80 E3        29.99F
CHARLEVOIX     PTCLDY     6   2  85 SE6       30.09F
FRANKFORT      CLEAR     11   8  85 E6        30.04F
GAYLORD        MOCLDY    -3  -6  87 E3        30.00F
GRAYLING       PTCLDY    -9 -14  80 CALM      30.04F
HARBOR SPRINGS PTCLDY    -3  -6  84 NE3       30.06F
HOUGHTON LAKE  PTCLDY     3  -1  83 CALM      30.04S
MANISTEE       CLEAR      7   1  78 E7        30.04F
OSCODA         MOCLDY    11   7  83 NW6       30.05F
PELLSTON       MOCLDY   -10 -14  82 CALM      30.07F
TRAVERSE CITY  CLEAR      7   1  76 CALM      30.06F
$$
MIZ007>008-015-260600-
EASTERN UPPER MICHIGAN

CITY           SKY/WX    TMP DP  RH WIND       PRES   REMARKS
KINROSS        MOCLDY    -6  -9  84 CALM      30.06F
MACKINAC ISLAN PTCLDY     6   0  78 E5        30.06F
NEWBERRY       PTCLDY    -8 -11  84 S5        30.03F
S. S. MARIE    MOCLDY    -1  -7  75 E3        30.07F
$$
MIZ004>006-011>014-085-260600-
CENTRAL UPPER MICHIGAN

CITY           SKY/WX    TMP DP  RH WIND       PRES   REMARKS
MANISTIQUE     PTCLDY     3  -1  83 CALM      30.05S
ESCANABA       PTCLDY     0  -2  92 CALM      30.03F
MENOMINEE      CLEAR      7   3  85 CALM      30.05S
SAWYER-GWINN   PTCLDY     0  -4  85 CALM      29.99S
$$
MIZ001>003-009>011-084-260600-
WESTERN UPPER MICHIGAN

CITY           SKY/WX    TMP DP  RH WIND       PRES   REMARKS
IRON MOUNTAIN  PTCLDY    -1  -6  79 CALM      30.00S
HOUGHTON       PTCLDY     9   4  80 S7        29.96F
COPPER HARBOR    N/A      3  -1  83 SW5       30.00F
IRONWOOD       PTCLDY    12  10  92 S7        29.91F
$$

ABBREVIATIONS USED IN REMARKS
   TC - TEMPERATURE IN CELSIUS
  WCI - WIND CHILL INDEX
   HX - HEAT INDEX
  VSB - VISIBILITY




USA.gov is the U.S. government's official web portal to all federal, state and local government web resources and services.